• Join FlightAware (Why Join?)
  • Login
  • US Flag 
08:21AM EDT


 

Airport Tracker/Info


-or-


 

Live Flight TrackerFlight Track Log ✈ CTL17 ✈ 25-Jun-2013 ✈ KBKL - KPTK

Flight Track Log - Related Links

Times and Time Zones

All times are in EDT time to prevent confusion due to time zone crossing. See the CTL17 flight status page for this flight to view local times or setup timezone preferences in your user account.

Time Position Orientation Groundspeed Altitude Reporting Facility
EDT Latitude Longitude Course Direction KTS MPH feet Rate Location/Type
06:40PM 41.5475 -81.7567 315° West 135 155 2,100  Level Cleveland Center
06:41PM 41.5700 -81.8014 304° West 163 188 2,400 540 Climbing Cleveland Center
06:42PM 41.5881 -81.8547 294° West 133 153 3,200 720 Climbing Cleveland Center
06:43PM 41.5917 -81.9019 276° West 127 146 3,900 420 Climbing Cleveland Center
06:44PM 41.6017 -81.9522 285° West 138 159 4,100 60 Climbing Cleveland Center
06:45PM 41.6094 -81.9994 282° West 139 160 4,100  Level Cleveland Center
06:46PM 41.6189 -82.0608 282° West 142 163 4,100  Level Cleveland Center
06:47PM 41.6289 -82.1083 286° West 142 163 4,100  Level Cleveland Center
06:48PM 41.6364 -82.1611 281° West 143 165 4,100  Level Cleveland Center
06:49PM 41.6439 -82.2142 281° West 141 162 4,200  Climbing Cleveland Center
06:50PM 41.6517 -82.2672 281° West 144 166 4,100 -60 Descending Cleveland Center
06:51PM 41.6592 -82.3175 281° West 139 160 4,100  Level Cleveland Center
06:52PM 41.6686 -82.3761 282° West 145 167 4,100  Level Cleveland Center
06:53PM 41.6783 -82.4264 285° West 143 165 4,100  Level Cleveland Center
06:54PM 41.6919 -82.4822 288° West 147 169 4,100  Level Cleveland Center
06:55PM 41.6956 -82.5131 279° West 145 167 4,100  Level Cleveland Center
06:56PM 41.7031 -82.5661 281° West 144 166 4,100  Level Cleveland Center
06:57PM 41.7125 -82.6192 283° West 143 165 4,100  Level Cleveland Center
06:58PM 41.7242 -82.6725 286° West 144 166 4,100  Level Cleveland Center
06:59PM 41.7400 -82.7203 294° West 143 165 4,100  Level Cleveland Center
07:00PM 41.7536 -82.7708 290° West 144 166 4,100  Level Cleveland Center
07:01PM 41.7692 -82.8217 292° West 147 169 4,100  Level Cleveland Center
07:02PM 41.7869 -82.8722 295° West 143 165 4,100  Level Cleveland Center
07:03PM 41.8028 -82.9231 293° West 141 162 4,100  Level Cleveland Center
07:04PM 41.8161 -82.9736 290° West 142 163 4,100 -120 Level Cleveland Center
07:05PM 41.8319 -83.0244 293° West 148 170 3,900 -300 Descending Cleveland Center
07:06PM 41.8494 -83.0753 295° West 153 176 3,600 -420 Descending Cleveland Center
07:07PM 41.8800 -83.1156 316° Northwest 182 209 3,100 -300 Descending Cleveland Center
07:08PM 41.9258 -83.1117 North 168 193 3,100  Level Cleveland Center
07:09PM 41.9719 -83.1053 North 175 201 3,100  Level Cleveland Center
07:10PM 42.0200 -83.0931 11° North 173 199 3,100  Level Cleveland Center
07:11PM 42.0642 -83.0808 12° North 167 192 3,100 -60 Level Cleveland Center
07:12PM 42.1144 -83.0689 10° North 166 191 3,000 -60 Descending Cleveland Center
07:13PM 42.1583 -83.0564 12° North 162 186 3,000  Level Cleveland Center
07:14PM 42.2067 -83.0417 13° North 162 186 3,000  Level Cleveland Center
07:15PM 42.2467 -83.0292 13° North 164 189 3,000  Level Cleveland Center
07:16PM 42.2928 -83.0169 11° North 166 191 3,000  Level Cleveland Center
07:17PM 42.3389 -83.0017 14° North 168 193 3,100  Climbing Cleveland Center
07:18PM 42.3847 -83.0036 358° North 161 185 3,000 -60 Descending Cleveland Center
07:19PM 42.4219 -83.0219 340° North 157 181 3,000  Level Cleveland Center
07:20PM 42.4519 -83.0708 310° West 153 176 3,000  Level Cleveland Center
07:21PM 42.4783 -83.1142 310° West 153 176 3,000  Level Cleveland Center
07:23PM 42.5083 -83.1603 311° West 154 177 3,000  Level Cleveland Center
07:24PM 42.5344 -83.2036 309° West 153 176 3,000  Level Cleveland Center
07:25PM 42.5669 -83.2417 319° Northwest 151 174 3,100  Climbing Cleveland Center
07:26PM 42.5997 -83.2742 324° Northwest 152 175 3,000 -300 Descending Cleveland Center
07:27PM 42.6364 -83.3067 327° Northwest 148 170 2,600 -600 Descending Cleveland Center
07:28PM 42.6606 -83.3475 309° West 126 145 1,800 -660 Descending Cleveland Center
07:29PM 42.6658 -83.3872 280° West 111 128 1,300 -540 Descending Cleveland Center